Regional Weather Roundup
Issued by NWS Wakefield, VA

Home | Current Version | Previous Version | Graphics & Text | Print | Product List | Glossary On
Versions: 1 2 3 4 5 6 7 8 9 10 11 12 13 14 15 16 17 18 19 20 21 22 23 24 25 26 27 28 29 30 31 32 33 34 35 36 37 38 39 40 41 42 43 44 45 46 47 48 49 50
000
ASUS41 KAKQ 071515
RWRAKQ

REGIONAL WEATHER ROUNDUP
NATIONAL WEATHER SERVICE WAKEFIELD VA
1100 AM EDT TUE JUL 07 2015

Note: "fair" indicates few or no clouds below 12,000 feet with no
significant weather and/or obstructions to visibility. * = Denotes
station may not report precipitation (e.g., rain,snow,etc.),
thunder or fog.

VAZ042-051-052>054-056-071600-
NORTHERN VIRGINIA

CITY           SKY/WX    TMP DP  RH WIND       PRES   REMARKS
WASH NATIONAL  MOSUNNY   83  74  74 S8        30.06S
DULLES         MOSUNNY   81  71  71 W3        30.07R
FORT BELVOIR   MOSUNNY   83  74  74 S7        30.06S
QUANTICO       SUNNY     78  71  79 S5        30.07S
FREDERICKSBRG* SUNNY     85  72  65 SW5       30.06S
STAFFORD*      SUNNY     81  71  71 W3        30.11S
WARRENTON      SUNNY     84  72  66 CALM      30.07F
CULPEPER*      SUNNY     81  71  69 CALM      30.08F
MANASSAS*      SUNNY     82  73  74 W6        30.08R
LEESBURG*      MOSUNNY   82  73  74 SW6       30.07F
WINCHESTER     SUNNY     81  68  65 SW7       30.07F
FRONT ROYAL*   FAIR      79  68  69 S7        30.07F
LURAY*         FAIR      82  70  65 SW5       30.10S
$$

VAZ048-049-060>072-079>083-071600-
CENTRAL AND SOUTH CENTRAL VIRGINIA

CITY           SKY/WX    TMP DP  RH WIND       PRES   REMARKS
RICHMOND       SUNNY     83  71  67 SW10      30.09S
CHESTERFIELD*  NOT AVBL
PETERSBURG*    SUNNY     83  76  77 SW5       30.11S
HANOVER        SUNNY     83  70  64 SW9       30.10S
TAPPAHANNOCK*  SUNNY     83  68  59 SW7       30.08F
QUINTON*       NOT AVBL
CHARLOTTSVILLE SUNNY     82  67  60 VRB6      30.09F
GORDONSVILLE*  FAIR      82  68  61 CALM      30.08S
ORANGE*        SUNNY     82  68  61 CALM      30.09F
LOUISA*        SUNNY     84  70  61 W7        30.08S
BUMPASS*       FAIR      82  70  68 W3        30.09R
FARMVILLE*     SUNNY     83  68  59 SW5       30.09F
CREWE*         FAIR      83  69  62 SW3       30.10S
FORT PICKETT*  FAIR      82  72  72 S6        30.11S
CHASE CITY*    FAIR      84  74  71 SW5       30.12S
CLARKSVILLE*   FAIR      81  73  78 S5        30.12S
SOUTH HILL*    SUNNY     81  71  71 CALM      30.18S
LAWRENCEVILLE* NOT AVBL
EMPORIA*         N/A     81  72  74 S6        30.12F
$$

VAZ088>098-071600-
SOUTHEAST VIRGINIA

CITY           SKY/WX    TMP DP  RH WIND       PRES   REMARKS
NORFOLK        SUNNY     84  70  62 SW12      30.10S
VIRGINIA BEACH MOSUNNY   87  73  62 SW12      30.11R
NORFOLK NAVAL  MOSUNNY   83  73  72 W8        30.12S
WEST POINT*    SUNNY     84  69  61 S6        30.10F
SALUDA*        FAIR      82  72  71 W3        30.08F
NEWPORT NEWS   SUNNY     82  72  71 SW13      30.10F
LANGLEY AFB    SUNNY     83  73  72 SW12      30.09S
FORT EUSTIS    SUNNY     83  82  98 VRB7      30.09S HX  98
WILLIAMSBURG*  SUNNY     86  73  66 SW3       30.11S
HR EXEC AP*    FAIR      84  73  70 SW9       30.13S
FRANKLIN*      PTSUNNY   81  74  77 SW3       30.12F
WAKEFIELD      SUNNY     83  71  67 S6        30.11S
$$

VAZ020-022-025-037-045-071600-
WEST CENTRAL AND SOUTHWEST VIRGINIA

CITY           SKY/WX    TMP DP  RH WIND       PRES   REMARKS
STAUNTON*      SUNNY     82  68  62 SW8       30.13F
WAYNESBORO*    FAIR      76  67  71 W6        30.13F
HOT SPRINGS VA CLOUDY    69  68  96 W13       30.24R FOG
LYNCHBURG      SUNNY     78  70  76 W5        30.14F
DANVILLE       SUNNY     83  69  62 VRB3      30.12F
SOUTH BOSTON*  FAIR      83  68  61 MISG      30.12S
MARTINSVILLE   SUNNY     83  67  57 SW3       30.17S
ROANOKE        SUNNY     79  67  66 W9        30.16S
BLACKSBURG     PTSUNNY   74  69  85 SW5       30.23R
DUBLIN*        PTSUNNY   78  70  76 S7        30.20F
MARION*        CLOUDY    74  67  78 SW8       30.25S
HILLSVILLE*    SUNNY     73  65  74 SW7       30.22S
RICHLANDS*     FAIR      73  68  84 W9        30.22R
WISE*          PTSUNNY   75  70  83 SW10      30.23R
ABINGDON*      CLOUDY    75  69  82 W7        30.21S
$$

MDZ021>025-VAZ099-100-071600-
SOUTHERN MARYLAND AND THE DELMARVA PENINSULA

CITY           SKY/WX    TMP DP  RH WIND       PRES   REMARKS
PATUXENT RIVER SUNNY     82  71  69 SW7       30.06F
BAY BRIDGE APT   N/A     79  72  78 W7        30.05F
LEONARDTOWN    SUNNY     81  70  69 SW7       30.08S
DOVER          PTSUNNY   82  75  77 VRB7      30.04F
GEORGETOWN     MOSUNNY   84  73  69 W12       30.06F
EASTON         MOSUNNY   84  75  74 W7        30.09F
CAMBRIDGE      SUNNY     82  70  65 SW6       30.05F
SALISBURY      MOSUNNY   83  72  69 SW9       30.07S
OCEAN CITY     MOSUNNY   85  73  67 W12       30.06F
WALLOPS ISLAND MOSUNNY   84  72  67 SW10      30.09S
ACCOMACK*      MOSUNNY   82  73  74 W8        30.09S
$$

NCZ012>017-030>032-071600-
NORTH CENTRAL AND EASTERN NORTH CAROLINA

CITY           SKY/WX    TMP DP  RH WIND       PRES   REMARKS
ROANOKE RAPIDS FAIR      82  72  69 SW6       30.12F
RALEIGH        MOSUNNY   84  72  67 SW3       30.13F
ELIZABETH CITY SUNNY     84  75  74 S13       30.13S
AHOSKIE*       SUNNY     82  73  75 CALM      30.12F
EDENTON*         N/A     83  74  74 S7        30.14R
CURRITUCK*     PTSUNNY   85  72  64 S3        30.13R
KILL DEVIL HLS SUNNY     87  72  60 SW7       30.12S
MANTEO         SUNNY     84  71  63 SW10      30.13F
CAPE HATTERAS  SUNNY     81  74  79 SW8       30.16S
TARBORO*         N/A     85  73  67 S3        30.13F
GOLDSBORO      SUNNY     85  74  68 SW7       30.11F
WASHINGTON     SUNNY     84  73  68 S8        30.14S
GREENVILLE     SUNNY     86  75  70 SW9       30.14F HX  95
NEW BERN       MOSUNNY   86  73  65 VRB7      30.16S
WILMINGTON     MOSUNNY   87  72  60 SW6       30.15S
$$

VAZ048-071600-
ELSEWHERE

CITY           SKY/WX    TMP DP  RH WIND       PRES   REMARKS
HARRISBURG PA  PTSUNNY   81  71  71 S3        30.03S
BALTIMORE      MOSUNNY   83  71  67 W7        30.05S
ANNAPOLIS      SUNNY     78  72  81 SE8       30.05S
ANDREWS AFB    NOT AVBL
PHILADELPHIA   MOSUNNY   81  71  71 SW9       30.04F
HENDERSON NC   SUNNY     82  67  61 CALM      30.13S
GREENSBORO     SUNNY     84  65  52 SW5       30.14F
ROCKY MOUNT    MOSUNNY   85  74  69 SW5       30.13S
$$

VAZ100-071600-
MARINE

STATION/POSITION TIME  TEMP    WIND        PRES    WAVE   SWELL
                       AIR SEA DIR/SP/G            HT/PER HT/PER
                 (UTC) (F)     (DEG/KT/KT) (MB)    (FT/S) (FT/S)
BRANDYWINE LGT   1400   77 76  210/  6/  7 1018.2R
CAPE MAY NJ      1400   78 78  210/  7/  9 1017.8R
LEWES DE         1400   82 73  260/ 10/ 13 1017.8F
15NM E FENWICK I 1450   76 75              1017.9S   3/ 5
OCEAN-CITY-INLET 1400   76 77  210/ 12/ 14 1018.0F
WACHAPREAGUE VA  1400   83 81  220/  8/ 12 1018.8F
THOMAS POINT MD  1400   76 77  190/  3/  3 1018.4F
GOOSES REEF MD   1500   80 80  190/  4/  4 1018.9F
COVE POINT MD    1400   80     280/  3/  7 1018.8S
SOLOMONS ISLAND  1400      80                N/A
BISHOPS HEAD MD  1400   78     250/ 11/ 13 1018.3S
PINEY POINT MD   1400          290/  4/  5   N/A
CAMBRIDGE MD     1400   79 80  250/  5/ 10 1018.0R
LEWISETTA VA     1400   79 80  270/  7/  8 1018.2F
RAPPAHANNOCK LGT 1400          230/ 12/ 13 1019.4F
STINGRAY PT      1500   81 81  230/  6/  8 1018.9F   1/ 3
YORK RVR RNG VA  1400   80     260/  7/  9 1018.7F
YORKTOWN VA      1400   80 80  240/  6/ 11 1019.0R
JAMESTOWN VA     1500   81 83  220/  4/  6   N/A
DOMINION TERM VA 1400   80     250/  9/ 11 1019.4S
KIPTOPEKE VA     1400      83  240/ 11/ 12   N/A
CHES BAY BRIDGE  1400   79 78  210/  9/ 12 1019.0S
CAPE HENRY VA    1400   81     210/  6/  8   N/A
CHESAPEAKE LGHT  1400   78     210/ 10/ 11 1020.2R
WILLOUBY STN VA  1400   78     240/ 11/ 12 1020.3R
CAPE HENRY BUOY  1428      78                N/A     3/ 9   2/12
1ST LANDING BUOY 1500      79              1019.1S   2/ 4
CAPE CHARLES BUO 1426      77                N/A     2/ 8   2/ 8
OFFSHORE WE BUOY 1411      78                N/A     3/ 8   3/ 8
64NM E OF VA BCH 1450   78 76  210/ 12/ 14 1019.6F   3/ 5   2/ 8
DUCK PIER NC     1400   80 70  210/ 11/ 13   N/A
44100 DUCK FRF   1424      78                N/A     2/ 8   2/13
44056 DUCK FRF   1411      76                N/A     2/14   2/14
OREGON INLET NC  1400   80 81  190/ 12/ 13 1020.6R
HATTERAS NC      1400   81 80  210/  7/ 11 1020.9R
DIAMOND SHLS NC  1450   81 83  230/ 10/ 12 1021.1R   3/ 8   2/ 8
CAPE LOOKOUT NC  1500   81     250/  8/ 10 1021.0S
$$


USA.gov is the U.S. government's official web portal to all federal, state and local government web resources and services.